FW0288 Weather Reports


time (UTC)temp
C
wind
direction
speed
KPH
gust
KPH
rain 1hr
cm
rain 24hr
cm
rain mn
cm
humidity
%
barometer
mb
20260505234516 0 297 0.0 0.0 0.00 0.94 0.58 92 1011.8
20260505233014 0 360 0.0 1.6 0.00 0.94 0.58 92 1011.2
20260505231520 0 316 0.0 3.2 0.00 0.94 0.58 92 1011.4
20260505230014 0 302 0.0 3.2 0.00 0.94 0.58 92 1011.3
20260505224511 0 290 0.0 3.2 0.00 0.94 0.58 92 1011.4
20260505223008 0 279 0.0 3.2 0.00 0.94 0.58 91 1010.9
20260505221506 0 360 0.0 3.2 0.00 0.94 0.58 92 1010.1
20260505220008 1 291 0.0 4.8 0.03 0.94 0.58 92 1010.3
20260505214504 1 360 0.0 4.8 0.03 0.94 0.58 92 1009.8
20260505213007 1 29 0.0 4.8 0.08 0.94 0.58 92 1009.6
20260505211503 1 355 0.0 6.4 0.08 0.94 0.58 91 1009.8
20260505210003 2 55 1.6 6.4 0.05 0.91 0.56 92 1009.3
20260505204502 2 12 0.0 1.6 0.05 0.91 0.56 91 1009.6
20260505203009 2 12 0.0 4.8 0.00 0.86 0.51 92 1009.7
20260505201503 2 42 0.0 3.2 0.00 0.86 0.51 92 1009.9
20260505200100 2 360 0.0 3.2 0.00 0.86 0.51 92 1010.0
20260505194601 2 9 0.0 3.2 0.00 0.86 0.51 92 1009.7
20260505193125 2 16 0.0 1.6 0.03 0.86 0.51 92 1009.7
20260505191606 2 28 0.0 3.2 0.03 0.86 0.51 92 1009.3
20260505190056 2 13 0.0 1.6 0.03 0.86 0.51 92 1009.2
20260505184601 3 40 0.0 4.8 0.03 0.86 0.51 93 1009.2
20260505183054 2 310 0.0 1.6 0.00 0.84 0.48 92 1009.5
20260505181553 2 5 0.0 0.0 0.00 0.84 0.48 92 1009.6
20260505180053 2 5 0.0 1.6 0.00 0.84 0.48 93 1009.5
20260505174549 2 15 0.0 1.6 0.03 0.84 0.48 92 1009.5
20260505173047 2 15 0.0 4.8 0.03 0.84 0.48 92 1009.8
20260505171549 2 355 0.0 1.6 0.03 0.84 0.48 92 1010.0
20260505170045 2 355 0.0 1.6 0.03 0.84 0.48 92 1009.6
20260505164545 2 355 0.0 0.0 0.00 0.81 0.46 92 1009.7
20260505163044 2 355 0.0 1.6 0.00 0.81 0.46 93 1009.6
20260505161544 1 355 0.0 4.8 0.03 0.81 0.46 92 1009.7
20260505153044 1 360 0.0 4.8 0.08 0.81 0.46 92 1009.6
20260505151538 1 360 0.0 1.6 0.08 0.79 0.43 92 1009.6
20260505124512 0 287 0.0 1.6 0.00 0.64 0.28 91 1008.2
20260505123009 0 279 0.0 3.2 0.03 0.64 0.28 91 1007.9
20260505121506 0 295 0.0 1.6 0.03 0.64 0.28 91 1007.8
20260505120005 0 296 0.0 1.6 0.03 0.64 0.28 91 1007.6
20260505114502 1 303 0.0 1.6 0.05 0.64 0.28 90 1007.2
20260505113107 1 295 0.0 1.6 0.03 0.61 0.25 90 1007.3
20260505111555 1 360 0.0 1.6 0.03 0.61 0.25 90 1006.9
20260505101543 3 296 0.0 4.8 0.20 0.58 0.23 90 1005.9
20260505100040 3 22 1.6 8.0 0.18 0.56 0.20 90 1005.6
20260505094538 4 322 0.0 4.8 0.10 0.48 0.13 89 1005.5
20260505093035 4 360 0.0 3.2 0.03 0.41 0.05 89 1005.2
20260505091532 5 299 0.0 11.3 0.00 0.38 0.03 89 1005.2
20260505084543 5 306 0.0 3.2 0.03 0.38 0.03 88 1005.0
20260505083043 5 295 0.0 3.2 0.03 0.38 0.03 88 1004.8
20260505081527 5 292 0.0 3.2 0.03 0.38 0.03 87 1004.9
20260505080034 5 342 0.0 4.8 0.00 0.36 0.00 85 1004.7
20260505074519 6 360 0.0 6.4 0.00 0.36 0.00 84 1004.7
20260505073027 8 360 0.0 3.2 0.00 0.36 0.00 83 1004.6
20260505071512 8 360 0.0 1.6 0.00 0.36 0.00 82 1004.3
20260505070010 8 360 0.0 1.6 0.00 0.36 0.00 82 1004.0
20260505064509 8 181 0.0 1.6 0.00 0.36 0.00 83 1003.9
20260505063006 8 360 0.0 1.6 0.00 0.36 0.00 83 1004.0
20260505061504 8 360 0.0 1.6 0.00 0.36 0.00 82 1003.8
20260505060004 8 360 0.0 1.6 0.00 0.36 0.00 83 1003.8
20260505054503 7 179 0.0 1.6 0.00 0.36 0.36 83 1003.9
20260505053002 7 160 0.0 1.6 0.00 0.36 0.36 83 1003.5
20260505051502 7 360 0.0 3.2 0.00 0.36 0.36 84 1003.6
20260505041605 7 221 0.0 1.6 0.05 0.36 0.36 87 1003.7
20260505040059 8 245 0.0 1.6 0.15 0.36 0.36 87 1003.6
20260505034558 8 219 0.0 1.6 0.30 0.36 0.36 87 1003.5
20260505033057 8 360 0.0 3.2 0.33 0.33 0.33 86 1003.7
20260505031555 8 258 0.0 1.6 0.30 0.30 0.30 85 1003.4
20260505030110 8 360 1.6 6.4 0.18 0.18 0.18 82 1003.1
20260505024551 9 360 0.0 4.8 0.05 0.05 0.05 78 1002.7
20260505023046 10 282 0.0 4.8 0.00 0.00 0.00 74 1002.3
20260505021544 10 288 0.0 1.6 0.00 0.00 0.00 72 1001.9
20260505020043 10 292 0.0 3.2 0.00 0.00 0.00 70 1002.1
20260505014602 10 284 0.0 1.6 0.00 0.00 0.00 68 1002.0
20260505013048 11 315 0.0 3.2 0.00 0.00 0.00 64 1001.7
20260505011541 13 360 3.2 19.3 0.00 0.00 0.00 54 1001.8
20260505010046 13 304 0.0 0.0 0.00 0.00 0.00 53 1001.2
20260505004546 13 355 0.0 6.4 0.00 0.00 0.00 53 1001.0
20260505003051 13 338 0.0 6.4 0.00 0.00 0.00 53 1000.9
20260505001533 15 298 0.0 3.2 0.00 0.00 0.00 48 1000.5
20260505000035 15 360 0.0 0.0 0.00 0.00 0.00 48 1000.4